This is the latest recevied weather packets stored in our database for station/object SV9TNF-1. If no packets are shown the sender has not sent any weather packets the latest 10 day(s).
| Time | Temp. | Humidity | Pressure | Rain* | Wind** | Luminosity | Snow |
|---|---|---|---|---|---|---|---|
| 1777722048 | 15.56° C | 57% | 1004.1 hPa | 0 mm | 0.45 m/s, 117° | - | - |
| 1777721748 | 15.56° C | 58% | 1004.1 hPa | 0 mm | 0.89 m/s, 140° | - | - |
| 1777721447 | 15.56° C | 58% | 1004.1 hPa | 0 mm | 0.89 m/s, 130° | - | - |
| 1777721147 | 15° C | 58% | 1004.1 hPa | 0 mm | 0.45 m/s, 128° | - | - |
| 1777720848 | 15° C | 57% | 1004.1 hPa | 0 mm | 1.34 m/s, 132° | - | - |
| 1777720547 | 15° C | 58% | 1004.1 hPa | 0 mm | 0.89 m/s, 134° | - | - |
| 1777720247 | 14.44° C | 58% | 1004.1 hPa | 0 mm | 2.68 m/s, 136° | - | - |
| 1777719947 | 15° C | 60% | 1004.1 hPa | 0 mm | 0 m/s | - | - |
| 1777719647 | 15° C | 60% | 1004.1 hPa | 0 mm | 0.89 m/s, 123° | - | - |
| 1777719347 | 15° C | 61% | 1004.1 hPa | 0 mm | 2.24 m/s, 123° | - | - |
| 1777719047 | 15° C | 63% | 1004.1 hPa | 0 mm | 1.79 m/s, 136° | - | - |
| 1777718747 | 15° C | 64% | 1004.1 hPa | 0 mm | 0.45 m/s, 136° | - | - |
| 1777718446 | 15° C | 63% | 1004.1 hPa | 0 mm | 1.34 m/s, 143° | - | - |
| 1777718147 | 15° C | 63% | 1004.1 hPa | 0 mm | 0 m/s | - | - |
| 1777717846 | 15° C | 62% | 1004.1 hPa | 0 mm | 0 m/s | - | - |
| 1777717546 | 14.44° C | 60% | 1004.1 hPa | 0 mm | 0 m/s | - | - |
| 1777717246 | 14.44° C | 63% | 1004.7 hPa | 0 mm | 0 m/s | - | - |
| 1777716946 | 14.44° C | 60% | 1004.7 hPa | 0 mm | 0.45 m/s, 165° | - | - |
| 1777716646 | 14.44° C | 63% | 1004.1 hPa | 0 mm | 2.68 m/s, 120° | - | - |
| 1777716346 | 14.44° C | 62% | 1004.1 hPa | 0 mm | 2.68 m/s, 118° | - | - |
| 1777716046 | 14.44° C | 61% | 1004.1 hPa | 0 mm | 1.34 m/s, 131° | - | - |
| 1777715746 | 14.44° C | 63% | 1004.7 hPa | 0 mm | 1.79 m/s, 149° | - | - |
| 1777715446 | 14.44° C | 67% | 1004.7 hPa | 0 mm | 0.45 m/s, 135° | - | - |
| 1777715145 | 13.89° C | 66% | 1004.1 hPa | 0 mm | 0 m/s | - | - |
| 1777714845 | 13.89° C | 65% | 1004.1 hPa | 0 mm | 0.89 m/s, 127° | - | - |
* Rain latest hour (hover to see other rain measurements)
** Current wind speed in m/s (hover to see current wind gust speed)